Location: Freiburg+im+Breisgau
(48.0359°N, 7.8195°E)
Time: 07:27:06
(UTC+02:00)

Tiangong 2 - Visible Passes

Search period start: 25 May 2018 00:00
Search period end: 04 June 2018 00:00
Orbit: 382 x 385 km, 42.8° (Epoch: 24 May)

Date Brightness Start Highest point End Pass type
(mag) Time Alt. Az. Time Alt. Az. Time Alt. Az.
25 May 2.1 22:11:03 10° SW 22:13:50 28° S 22:16:22 11° ESE visible
25 May 3.1 23:47:23 10° WSW 23:48:34 18° SW 23:48:34 18° SW visible
26 May 2.0 22:47:38 10° WSW 22:50:28 30° S 22:51:30 24° SSE visible
27 May 2.0 21:47:57 10° WSW 21:50:47 31° S 21:53:37 10° ESE visible
27 May 2.6 23:24:29 10° WSW 23:26:32 22° SSW 23:26:32 22° SSW visible
28 May 2.2 22:24:39 10° WSW 22:27:24 27° S 22:29:18 16° SE visible
29 May 2.9 23:01:44 10° WSW 23:03:56 18° SSW 23:04:13 17° SSW visible
30 May 2.6 22:01:44 10° WSW 22:04:18 23° SSW 22:06:52 10° SE visible
31 May 3.4 22:39:16 10° SW 22:40:44 13° SSW 22:41:52 11° S visible
